Location: Krasnoyarskiy Pitomnik
(51.1333°N, 71.6167°E)
Time: 20:22:03
(UTC+00:00)

A-11 Canister half - Pass Details

Date: 24 April 2024
Orbit: 1525 x 1683 km, 47.3° (Epoch: 28 May)

Event Time Altitude Azimuth Distance (km) Brightness Sun altitude
Rises 05:22:29 0° 284° (WNW) 4,931 11.3 46.0°
Reaches altitude 10° 05:25:45 10° 279° (W) 3,948 10.9 46.3°
Maximum altitude 05:35:23 51° 209° (SSW) 2,046 10.6 47.2°
Drops below altitude 10° 05:44:54 10° 138° (SE) 3,905 12.1 48.0°
Sets 05:48:08 0° 133° (SE) 4,875 12.3 48.3°
